"Time","Value","Approval","myLocation"
"2023-03-30 00:00",14.2340295774648,"Approved","OW470"
"2023-03-30 01:00",14.2355323943662,"Approved","OW470"
"2023-03-30 02:00",14.2371352112676,"Approved","OW470"
"2023-03-30 03:00",14.238538028169,"Approved","OW470"
"2023-03-30 04:00",14.2385408450704,"Approved","OW470"
"2023-03-30 05:00",14.2379436619718,"Approved","OW470"
"2023-03-30 06:00",14.2411464788732,"Approved","OW470"
"2023-03-30 07:00",14.2456492957746,"Approved","OW470"
"2023-03-30 08:00",14.2464521126761,"Approved","OW470"
"2023-03-30 09:00",14.2490549295775,"Approved","OW470"
"2023-03-30 10:00",14.2494577464789,"Approved","OW470"
"2023-03-30 11:00",14.2499605633803,"Approved","OW470"
"2023-03-30 12:00",14.2503633802817,"Approved","OW470"
"2023-03-30 13:00",14.2509661971831,"Approved","OW470"
"2023-03-30 14:00",14.2539690140845,"Approved","OW470"
"2023-03-30 15:00",14.2547718309859,"Approved","OW470"
"2023-03-30 16:00",14.2553746478873,"Approved","OW470"
"2023-03-30 17:00",14.2553774647887,"Approved","OW470"
"2023-03-30 18:00",14.2563802816901,"Approved","OW470"
"2023-03-30 19:00",14.2572830985915,"Approved","OW470"
"2023-03-30 20:00",14.260385915493,"Approved","OW470"
"2023-03-30 21:00",14.2625887323944,"Approved","OW470"
"2023-03-30 22:00",14.2663915492958,"Approved","OW470"
"2023-03-30 23:00",14.2698943661972,"Approved","OW470"
"2023-03-31 00:00",14.2726971830986,"Approved","OW470"
"2023-03-31 01:00",14.2744,"Approved","OW470"
"2023-03-31 02:00",14.2792028169014,"Approved","OW470"
"2023-03-31 03:00",14.2804056338028,"Approved","OW470"
"2023-03-31 04:00",14.2820084507042,"Approved","OW470"
"2023-03-31 05:00",14.2844112676056,"Approved","OW470"
"2023-03-31 06:00",14.286714084507,"Approved","OW470"
"2023-03-31 07:00",14.2872169014085,"Approved","OW470"
"2023-03-31 08:00",14.2888197183099,"Approved","OW470"
"2023-03-31 09:00",14.2885225352113,"Approved","OW470"
"2023-03-31 10:00",14.2911253521127,"Approved","OW470"
"2023-03-31 11:00",14.2907281690141,"Approved","OW470"
"2023-03-31 12:00",14.2896309859155,"Approved","OW470"
"2023-03-31 13:00",14.2888338028169,"Approved","OW470"
"2023-03-31 14:00",14.2868366197183,"Approved","OW470"
"2023-03-31 15:00",14.2876394366197,"Approved","OW470"
"2023-03-31 16:00",14.2822422535211,"Approved","OW470"
"2023-03-31 17:00",14.2850450704225,"Approved","OW470"
"2023-03-31 18:00",14.2788478873239,"Approved","OW470"
"2023-03-31 19:00",14.2784507042254,"Approved","OW470"
"2023-03-31 20:00",14.2764535211268,"Approved","OW470"
"2023-03-31 21:00",14.2745563380282,"Approved","OW470"
"2023-03-31 22:00",14.2736591549296,"Approved","OW470"
"2023-03-31 23:00",14.273161971831,"Approved","OW470"
"2023-04-01 00:00",14.2743647887324,"Approved","OW470"
"2023-04-01 01:00",14.2765676056338,"Approved","OW470"
"2023-04-01 02:00",14.2748704225352,"Approved","OW470"
"2023-04-01 03:00",14.2789732394366,"Approved","OW470"
"2023-04-01 04:00",14.278076056338,"Approved","OW470"
"2023-04-01 05:00",14.2811788732394,"Approved","OW470"
"2023-04-01 06:00",14.2819816901408,"Approved","OW470"
"2023-04-01 07:00",14.2830845070423,"Approved","OW470"
"2023-04-01 08:00",14.2845873239437,"Approved","OW470"
"2023-04-01 09:00",14.2877901408451,"Approved","OW470"
"2023-04-01 10:00",14.2904929577465,"Approved","OW470"
"2023-04-01 11:00",14.2885957746479,"Approved","OW470"
"2023-04-01 12:00",14.2909985915493,"Approved","OW470"
"2023-04-01 13:00",14.2941014084507,"Approved","OW470"
"2023-04-01 14:00",14.2953042253521,"Approved","OW470"
"2023-04-01 15:00",14.2988070422535,"Approved","OW470"
"2023-04-01 16:00",14.3021098591549,"Approved","OW470"
"2023-04-01 17:00",14.3054126760563,"Approved","OW470"
"2023-04-01 18:00",14.3076154929577,"Approved","OW470"
"2023-04-01 19:00",14.3056183098592,"Approved","OW470"
"2023-04-01 20:00",14.3082211267606,"Approved","OW470"
"2023-04-01 21:00",14.310823943662,"Approved","OW470"
"2023-04-01 22:00",14.3117267605634,"Approved","OW470"
"2023-04-01 23:00",14.3129295774648,"Approved","OW470"
"2023-04-02 00:00",14.3137323943662,"Approved","OW470"
"2023-04-02 01:00",14.3199352112676,"Approved","OW470"
"2023-04-02 02:00",14.319538028169,"Approved","OW470"
"2023-04-02 03:00",14.3184408450704,"Approved","OW470"
"2023-04-02 04:00",14.3235436619718,"Approved","OW470"
"2023-04-02 05:00",14.3199464788732,"Approved","OW470"
"2023-04-02 06:00",14.3179492957746,"Approved","OW470"
"2023-04-02 07:00",14.3195521126761,"Approved","OW470"
"2023-04-02 08:00",14.3182549295775,"Approved","OW470"
"2023-04-02 09:00",14.3209577464789,"Approved","OW470"
"2023-04-02 10:00",14.3200605633803,"Approved","OW470"
"2023-04-02 11:00",14.3195633802817,"Approved","OW470"
"2023-04-02 12:00",14.3183661971831,"Approved","OW470"
"2023-04-02 13:00",14.3187690140845,"Approved","OW470"
"2023-04-02 14:00",14.3207718309859,"Approved","OW470"
"2023-04-02 15:00",14.3224746478873,"Approved","OW470"
"2023-04-02 16:00",14.3226774647887,"Approved","OW470"
"2023-04-02 17:00",14.3228802816901,"Approved","OW470"
"2023-04-02 18:00",14.3234830985916,"Approved","OW470"
"2023-04-02 19:00",14.325685915493,"Approved","OW470"
"2023-04-02 20:00",14.3257887323944,"Approved","OW470"
"2023-04-02 21:00",14.3273915492958,"Approved","OW470"
"2023-04-02 22:00",14.3282943661972,"Approved","OW470"
"2023-04-02 23:00",14.3351971830986,"Approved","OW470"
"2023-04-03 00:00",14.3343,"Approved","OW470"
"2023-04-03 01:00",14.3365028169014,"Approved","OW470"
"2023-04-03 02:00",14.3386056338028,"Approved","OW470"
"2023-04-03 03:00",14.3402084507042,"Approved","OW470"
"2023-04-03 04:00",14.3430112676056,"Approved","OW470"
"2023-04-03 05:00",14.343714084507,"Approved","OW470"
"2023-04-03 06:00",14.3458169014085,"Approved","OW470"
"2023-04-03 07:00",14.3462197183099,"Approved","OW470"
"2023-04-03 08:00",14.3500225352113,"Approved","OW470"
"2023-04-03 09:00",14.3510253521127,"Approved","OW470"
"2023-04-03 10:00",14.3538281690141,"Approved","OW470"
"2023-04-03 11:00",14.3545309859155,"Approved","OW470"
"2023-04-03 12:00",14.3556338028169,"Approved","OW470"
"2023-04-03 13:00",14.3539366197183,"Approved","OW470"
"2023-04-03 14:00",14.3570394366197,"Approved","OW470"
"2023-04-03 15:00",14.3585422535211,"Approved","OW470"
"2023-04-03 16:00",14.3574450704225,"Approved","OW470"
"2023-04-03 17:00",14.3575478873239,"Approved","OW470"
"2023-04-03 18:00",14.3576507042254,"Approved","OW470"
"2023-04-03 19:00",14.3586535211268,"Approved","OW470"
"2023-04-03 20:00",14.3574563380282,"Approved","OW470"
"2023-04-03 21:00",14.3580591549296,"Approved","OW470"
"2023-04-03 22:00",14.357561971831,"Approved","OW470"
"2023-04-03 23:00",14.3572647887324,"Approved","OW470"
"2023-04-04 00:00",14.3592676056338,"Approved","OW470"
"2023-04-04 01:00",14.3582704225352,"Approved","OW470"
"2023-04-04 02:00",14.3594732394366,"Approved","OW470"
"2023-04-04 03:00",14.361176056338,"Approved","OW470"
"2023-04-04 04:00",14.3612788732394,"Approved","OW470"
"2023-04-04 05:00",14.3647816901408,"Approved","OW470"
"2023-04-04 06:00",14.3647845070423,"Approved","OW470"
"2023-04-04 07:00",14.3685873239437,"Approved","OW470"
"2023-04-04 08:00",14.3703901408451,"Approved","OW470"
"2023-04-04 09:00",14.3724929577465,"Approved","OW470"
"2023-04-04 10:00",14.3749957746479,"Approved","OW470"
"2023-04-04 11:00",14.3770985915493,"Approved","OW470"
"2023-04-04 12:00",14.3773014084507,"Approved","OW470"
"2023-04-04 13:00",14.3783042253521,"Approved","OW470"
"2023-04-04 14:00",14.3785070422535,"Approved","OW470"
"2023-04-04 15:00",14.3797098591549,"Approved","OW470"
"2023-04-04 16:00",14.3788126760563,"Approved","OW470"
"2023-04-04 17:00",14.3810154929577,"Approved","OW470"
"2023-04-04 18:00",14.3808183098592,"Approved","OW470"
"2023-04-04 19:00",14.3793211267606,"Approved","OW470"
"2023-04-04 20:00",14.380323943662,"Approved","OW470"
"2023-04-04 21:00",14.3797267605634,"Approved","OW470"
"2023-04-04 22:00",14.3805295774648,"Approved","OW470"
"2023-04-04 23:00",14.3793323943662,"Approved","OW470"
"2023-04-05 00:00",14.3818352112676,"Approved","OW470"
"2023-04-05 01:00",14.384938028169,"Approved","OW470"
"2023-04-05 02:00",14.3849408450704,"Approved","OW470"
"2023-04-05 03:00",14.3849436619718,"Approved","OW470"
"2023-04-05 04:00",14.3856464788732,"Approved","OW470"
"2023-04-05 05:00",14.3871492957746,"Approved","OW470"
"2023-04-05 06:00",14.3866521126761,"Approved","OW470"
"2023-04-05 07:00",14.3887549295775,"Approved","OW470"
"2023-04-05 08:00",14.3872577464789,"Approved","OW470"
"2023-04-05 09:00",14.3882605633803,"Approved","OW470"
"2023-04-05 10:00",14.3877633802817,"Approved","OW470"
"2023-04-05 11:00",14.3866661971831,"Approved","OW470"
"2023-04-05 12:00",14.3859690140845,"Approved","OW470"
"2023-04-05 13:00",14.3832718309859,"Approved","OW470"
"2023-04-05 14:00",14.3813746478873,"Approved","OW470"
"2023-04-05 15:00",14.3825774647887,"Approved","OW470"
"2023-04-05 16:00",14.3829802816901,"Approved","OW470"
"2023-04-05 17:00",14.3828830985915,"Approved","OW470"
"2023-04-05 18:00",14.379185915493,"Approved","OW470"
"2023-04-05 19:00",14.3786887323944,"Approved","OW470"
"2023-04-05 20:00",14.3781915492958,"Approved","OW470"
"2023-04-05 21:00",14.3754943661972,"Approved","OW470"
"2023-04-05 22:00",14.3731971830986,"Approved","OW470"
"2023-04-05 23:00",14.3705,"Approved","OW470"
"2023-04-06 00:00",14.3684028169014,"Approved","OW470"
"2023-04-06 01:00",14.3652056338028,"Approved","OW470"
"2023-04-06 02:00",14.3616084507042,"Approved","OW470"
"2023-04-06 03:00",14.3579112676056,"Approved","OW470"
"2023-04-06 04:00",14.354614084507,"Approved","OW470"
"2023-04-06 05:00",14.3516169014085,"Approved","OW470"
"2023-04-06 06:00",14.3455197183099,"Approved","OW470"
"2023-04-06 07:00",14.3436225352113,"Approved","OW470"
"2023-04-06 08:00",14.3402253521127,"Approved","OW470"
"2023-04-06 09:00",14.3371281690141,"Approved","OW470"
"2023-04-06 10:00",14.3318309859155,"Approved","OW470"
"2023-04-06 11:00",14.3276338028169,"Approved","OW470"
"2023-04-06 12:00",14.3260366197183,"Approved","OW470"
"2023-04-06 13:00",14.3225394366197,"Approved","OW470"
"2023-04-06 14:00",14.3198422535211,"Approved","OW470"
"2023-04-06 15:00",14.3159450704225,"Approved","OW470"
"2023-04-06 16:00",14.3087478873239,"Approved","OW470"
"2023-04-06 17:00",14.3031507042254,"Approved","OW470"
"2023-04-06 18:00",14.3024535211268,"Approved","OW470"
"2023-04-06 19:00",14.2957563380282,"Approved","OW470"
"2023-04-06 20:00",14.2937591549296,"Approved","OW470"
"2023-04-06 21:00",14.291161971831,"Approved","OW470"
"2023-04-06 22:00",14.2884647887324,"Approved","OW470"
"2023-04-06 23:00",14.2870676056338,"Approved","OW470"
"2023-04-07 00:00",14.2848704225352,"Approved","OW470"
"2023-04-07 01:00",14.2866732394366,"Approved","OW470"
"2023-04-07 02:00",14.284076056338,"Approved","OW470"
"2023-04-07 03:00",14.2833788732394,"Approved","OW470"
"2023-04-07 04:00",14.2857816901408,"Approved","OW470"
"2023-04-07 05:00",14.2856845070423,"Approved","OW470"
"2023-04-07 06:00",14.2862873239437,"Approved","OW470"
"2023-04-07 07:00",14.2863901408451,"Approved","OW470"
"2023-04-07 08:00",14.2892929577465,"Approved","OW470"
"2023-04-07 09:00",14.2905957746479,"Approved","OW470"
"2023-04-07 10:00",14.2920985915493,"Approved","OW470"
"2023-04-07 11:00",14.2961014084507,"Approved","OW470"
"2023-04-07 12:00",14.2959042253521,"Approved","OW470"
"2023-04-07 13:00",14.2973070422535,"Approved","OW470"
"2023-04-07 14:00",14.2977098591549,"Approved","OW470"
"2023-04-07 15:00",14.3034126760563,"Approved","OW470"
"2023-04-07 16:00",14.3039154929577,"Approved","OW470"
"2023-04-07 17:00",14.3046183098592,"Approved","OW470"
"2023-04-07 18:00",14.3073211267606,"Approved","OW470"
"2023-04-07 19:00",14.308523943662,"Approved","OW470"
"2023-04-07 20:00",14.3135267605634,"Approved","OW470"
"2023-04-07 21:00",14.3138295774648,"Approved","OW470"
"2023-04-07 22:00",14.3178323943662,"Approved","OW470"
"2023-04-07 23:00",14.3192352112676,"Approved","OW470"
"2023-04-08 00:00",14.320238028169,"Approved","OW470"
"2023-04-08 01:00",14.3217408450704,"Approved","OW470"
"2023-04-08 02:00",14.3240436619718,"Approved","OW470"
"2023-04-08 03:00",14.3243464788732,"Approved","OW470"
"2023-04-08 04:00",14.3254492957746,"Approved","OW470"
"2023-04-08 05:00",14.3252521126761,"Approved","OW470"
"2023-04-08 06:00",14.3257549295775,"Approved","OW470"
"2023-04-08 07:00",14.3256577464789,"Approved","OW470"
"2023-04-08 08:00",14.3272605633803,"Approved","OW470"
"2023-04-08 09:00",14.3276633802817,"Approved","OW470"
"2023-04-08 10:00",14.3287661971831,"Approved","OW470"
"2023-04-08 11:00",14.3292690140845,"Approved","OW470"
"2023-04-08 12:00",14.3322718309859,"Approved","OW470"
"2023-04-08 13:00",14.3351746478873,"Approved","OW470"
"2023-04-08 14:00",14.3362774647887,"Approved","OW470"
"2023-04-08 15:00",14.3389802816901,"Approved","OW470"
"2023-04-08 16:00",14.3424830985915,"Approved","OW470"
"2023-04-08 17:00",14.343285915493,"Approved","OW470"
"2023-04-08 18:00",14.3470887323944,"Approved","OW470"
"2023-04-08 19:00",14.3464915492958,"Approved","OW470"
"2023-04-08 20:00",14.3494943661972,"Approved","OW470"
"2023-04-08 21:00",14.3502971830986,"Approved","OW470"
"2023-04-08 22:00",14.3495,"Approved","OW470"
"2023-04-08 23:00",14.3516028169014,"Approved","OW470"
"2023-04-09 00:00",14.3533056338028,"Approved","OW470"
"2023-04-09 01:00",14.3528084507042,"Approved","OW470"
"2023-04-09 02:00",14.3525112676056,"Approved","OW470"
"2023-04-09 03:00",14.352614084507,"Approved","OW470"
"2023-04-09 04:00",14.3532169014084,"Approved","OW470"
"2023-04-09 05:00",14.3528197183099,"Approved","OW470"
"2023-04-09 06:00",14.3509225352113,"Approved","OW470"
"2023-04-09 07:00",14.3494253521127,"Approved","OW470"
"2023-04-09 08:00",14.3490281690141,"Approved","OW470"
"2023-04-09 09:00",14.3441309859155,"Approved","OW470"
"2023-04-09 10:00",14.3449338028169,"Approved","OW470"
"2023-04-09 11:00",14.3402366197183,"Approved","OW470"
"2023-04-09 12:00",14.3357394366197,"Approved","OW470"
"2023-04-09 13:00",14.3358422535211,"Approved","OW470"
"2023-04-09 14:00",14.3382450704225,"Approved","OW470"
"2023-04-09 15:00",14.3325478873239,"Approved","OW470"
"2023-04-09 16:00",14.3345507042254,"Approved","OW470"
"2023-04-09 17:00",14.3375535211268,"Approved","OW470"
"2023-04-09 18:00",14.3386563380282,"Approved","OW470"
"2023-04-09 19:00",14.3421591549296,"Approved","OW470"
"2023-04-09 20:00",14.344161971831,"Approved","OW470"
"2023-04-09 21:00",14.3468647887324,"Approved","OW470"
"2023-04-09 22:00",14.3504676056338,"Approved","OW470"
"2023-04-09 23:00",14.3546704225352,"Approved","OW470"
"2023-04-10 00:00",14.3602732394366,"Approved","OW470"
"2023-04-10 01:00",14.366076056338,"Approved","OW470"
"2023-04-10 02:00",14.3669788732394,"Approved","OW470"
"2023-04-10 03:00",14.3709816901408,"Approved","OW470"
"2023-04-10 04:00",14.3713845070423,"Approved","OW470"
"2023-04-10 05:00",14.3758873239437,"Approved","OW470"
"2023-04-10 06:00",14.3747901408451,"Approved","OW470"
"2023-04-10 07:00",14.3749929577465,"Approved","OW470"
"2023-04-10 08:00",14.3736957746479,"Approved","OW470"
"2023-04-10 09:00",14.3723985915493,"Approved","OW470"
"2023-04-10 10:00",14.3713014084507,"Approved","OW470"
"2023-04-10 11:00",14.3690042253521,"Approved","OW470"
"2023-04-10 12:00",14.3667070422535,"Approved","OW470"
"2023-04-10 13:00",14.3654098591549,"Approved","OW470"
"2023-04-10 14:00",14.3629126760563,"Approved","OW470"
"2023-04-10 15:00",14.3608154929577,"Approved","OW470"
"2023-04-10 16:00",14.3588183098592,"Approved","OW470"
"2023-04-10 17:00",14.3586211267606,"Approved","OW470"
"2023-04-10 18:00",14.356023943662,"Approved","OW470"
"2023-04-10 19:00",14.3519267605634,"Approved","OW470"
"2023-04-10 20:00",14.3481295774648,"Approved","OW470"
"2023-04-10 21:00",14.3470323943662,"Approved","OW470"
"2023-04-10 22:00",14.3459352112676,"Approved","OW470"
"2023-04-10 23:00",14.340638028169,"Approved","OW470"
"2023-04-11 00:00",14.3392408450704,"Approved","OW470"
"2023-04-11 01:00",14.3385436619718,"Approved","OW470"
"2023-04-11 02:00",14.3355464788732,"Approved","OW470"
"2023-04-11 03:00",14.3340492957746,"Approved","OW470"
"2023-04-11 04:00",14.3302521126761,"Approved","OW470"
"2023-04-11 05:00",14.3310549295775,"Approved","OW470"
"2023-04-11 06:00",14.3301577464789,"Approved","OW470"
"2023-04-11 07:00",14.3294605633803,"Approved","OW470"
"2023-04-11 08:00",14.3304633802817,"Approved","OW470"
"2023-04-11 09:00",14.3301661971831,"Approved","OW470"
"2023-04-11 10:00",14.3332690140845,"Approved","OW470"
"2023-04-11 11:00",14.3357718309859,"Approved","OW470"
"2023-04-11 12:00",14.3370746478873,"Approved","OW470"
"2023-04-11 13:00",14.3379774647887,"Approved","OW470"
"2023-04-11 14:00",14.3441802816901,"Approved","OW470"
"2023-04-11 15:00",14.3467830985915,"Approved","OW470"
"2023-04-11 16:00",14.351185915493,"Approved","OW470"
"2023-04-11 17:00",14.3520887323944,"Approved","OW470"
"2023-04-11 18:00",14.3578915492958,"Approved","OW470"
"2023-04-11 19:00",14.3581943661972,"Approved","OW470"
"2023-04-11 20:00",14.3601971830986,"Approved","OW470"
"2023-04-11 21:00",14.3628,"Approved","OW470"
"2023-04-11 22:00",14.3635028169014,"Approved","OW470"
"2023-04-11 23:00",14.3660056338028,"Approved","OW470"
"2023-04-12 00:00",14.3658084507042,"Approved","OW470"
"2023-04-12 01:00",14.3660112676056,"Approved","OW470"
"2023-04-12 02:00",14.368814084507,"Approved","OW470"
"2023-04-12 03:00",14.3686169014085,"Approved","OW470"
"2023-04-12 04:00",14.3701197183099,"Approved","OW470"
"2023-04-12 05:00",14.3722225352113,"Approved","OW470"
"2023-04-12 06:00",14.3730253521127,"Approved","OW470"
"2023-04-12 07:00",14.3750281690141,"Approved","OW470"
"2023-04-12 08:00",14.3778309859155,"Approved","OW470"
"2023-04-12 09:00",14.3789338028169,"Approved","OW470"
"2023-04-12 10:00",14.3814366197183,"Approved","OW470"
"2023-04-12 11:00",14.3830394366197,"Approved","OW470"
"2023-04-12 12:00",14.3826422535211,"Approved","OW470"
"2023-04-12 13:00",14.3847450704225,"Approved","OW470"
"2023-04-12 14:00",14.3883478873239,"Approved","OW470"
"2023-04-12 15:00",14.3885507042254,"Approved","OW470"
"2023-04-12 16:00",14.3939535211268,"Approved","OW470"
"2023-04-12 17:00",14.3924563380282,"Approved","OW470"
"2023-04-12 18:00",14.3923591549296,"Approved","OW470"
"2023-04-12 19:00",14.394661971831,"Approved","OW470"
"2023-04-12 20:00",14.3957647887324,"Approved","OW470"
"2023-04-12 21:00",14.3962676056338,"Approved","OW470"
"2023-04-12 22:00",14.3975704225352,"Approved","OW470"
"2023-04-12 23:00",14.3977732394366,"Approved","OW470"
"2023-04-13 00:00",14.399776056338,"Approved","OW470"
"2023-04-13 01:00",14.4009788732394,"Approved","OW470"
"2023-04-13 02:00",14.4017816901408,"Approved","OW470"
"2023-04-13 03:00",14.4023845070423,"Approved","OW470"
"2023-04-13 04:00",14.4026873239437,"Approved","OW470"
"2023-04-13 05:00",14.3998901408451,"Approved","OW470"
"2023-04-13 06:00",14.4017929577465,"Approved","OW470"
"2023-04-13 07:00",14.4031957746479,"Approved","OW470"
"2023-04-13 08:00",14.4026985915493,"Approved","OW470"
"2023-04-13 09:00",14.4035014084507,"Approved","OW470"
"2023-04-13 10:00",14.4015042253521,"Approved","OW470"
"2023-04-13 11:00",14.4052070422535,"Approved","OW470"
"2023-04-13 12:00",14.4002098591549,"Approved","OW470"
"2023-04-13 13:00",14.3966126760563,"Approved","OW470"
"2023-04-13 14:00",14.3973154929577,"Approved","OW470"
"2023-04-13 15:00",14.3977183098592,"Approved","OW470"
"2023-04-13 16:00",14.3977211267606,"Approved","OW470"
"2023-04-13 17:00",14.396823943662,"Approved","OW470"
"2023-04-13 18:00",14.3966267605634,"Approved","OW470"
"2023-04-13 19:00",14.3975295774648,"Approved","OW470"
"2023-04-13 20:00",14.3957323943662,"Approved","OW470"
"2023-04-13 21:00",14.3945352112676,"Approved","OW470"
"2023-04-13 22:00",14.393738028169,"Approved","OW470"
"2023-04-13 23:00",14.3927408450704,"Approved","OW470"
"2023-04-14 00:00",14.3919436619718,"Approved","OW470"
"2023-04-14 01:00",14.3907464788732,"Approved","OW470"
"2023-04-14 02:00",14.3898492957746,"Approved","OW470"
"2023-04-14 03:00",14.3904521126761,"Approved","OW470"
"2023-04-14 04:00",14.3898549295775,"Approved","OW470"
"2023-04-14 05:00",14.3904577464789,"Approved","OW470"
"2023-04-14 06:00",14.3891605633803,"Approved","OW470"
"2023-04-14 07:00",14.3888633802817,"Approved","OW470"
"2023-04-14 08:00",14.3913661971831,"Approved","OW470"
"2023-04-14 09:00",14.3912690140845,"Approved","OW470"
"2023-04-14 10:00",14.3912718309859,"Approved","OW470"
"2023-04-14 11:00",14.3918746478873,"Approved","OW470"
"2023-04-14 12:00",14.3907774647887,"Approved","OW470"
"2023-04-14 13:00",14.3883802816901,"Approved","OW470"
"2023-04-14 14:00",14.3926830985915,"Approved","OW470"
"2023-04-14 15:00",14.393985915493,"Approved","OW470"
"2023-04-14 16:00",14.3945887323944,"Approved","OW470"
"2023-04-14 17:00",14.3942915492958,"Approved","OW470"
"2023-04-14 18:00",14.3952943661972,"Approved","OW470"
"2023-04-14 19:00",14.3925971830986,"Approved","OW470"
"2023-04-14 20:00",14.3924,"Approved","OW470"
"2023-04-14 21:00",14.3915028169014,"Approved","OW470"
"2023-04-14 22:00",14.3942056338028,"Approved","OW470"
"2023-04-14 23:00",14.3933084507042,"Approved","OW470"
"2023-04-15 00:00",14.3928112676056,"Approved","OW470"
"2023-04-15 01:00",14.393814084507,"Approved","OW470"
"2023-04-15 02:00",14.3915169014085,"Approved","OW470"
"2023-04-15 03:00",14.3915197183099,"Approved","OW470"
"2023-04-15 04:00",14.3913225352113,"Approved","OW470"
"2023-04-15 05:00",14.3915253521127,"Approved","OW470"
"2023-04-15 06:00",14.3898281690141,"Approved","OW470"
"2023-04-15 07:00",14.3921309859155,"Approved","OW470"
"2023-04-15 08:00",14.3913338028169,"Approved","OW470"
"2023-04-15 09:00",14.3914366197183,"Approved","OW470"
"2023-04-15 10:00",14.3923394366197,"Approved","OW470"
"2023-04-15 11:00",14.3912422535211,"Approved","OW470"
"2023-04-15 12:00",14.3922450704225,"Approved","OW470"
"2023-04-15 13:00",14.3904478873239,"Approved","OW470"
"2023-04-15 14:00",14.3915507042254,"Approved","OW470"
"2023-04-15 15:00",14.3923535211268,"Approved","OW470"
"2023-04-15 16:00",14.3931563380282,"Approved","OW470"
"2023-04-15 17:00",14.3929591549296,"Approved","OW470"
"2023-04-15 18:00",14.392561971831,"Approved","OW470"
"2023-04-15 19:00",14.3911647887324,"Approved","OW470"
"2023-04-15 20:00",14.3905676056338,"Approved","OW470"
"2023-04-15 21:00",14.3887704225352,"Approved","OW470"
"2023-04-15 22:00",14.3878732394366,"Approved","OW470"
"2023-04-15 23:00",14.386176056338,"Approved","OW470"
"2023-04-16 00:00",14.3806788732394,"Approved","OW470"
"2023-04-16 01:00",14.3782816901408,"Approved","OW470"
"2023-04-16 02:00",14.3775845070423,"Approved","OW470"
"2023-04-16 03:00",14.3723873239437,"Approved","OW470"
"2023-04-16 04:00",14.3695901408451,"Approved","OW470"
"2023-04-16 05:00",14.3644929577465,"Approved","OW470"
"2023-04-16 06:00",14.3592957746479,"Approved","OW470"
"2023-04-16 07:00",14.3561985915493,"Approved","OW470"
"2023-04-16 08:00",14.3508014084507,"Approved","OW470"
"2023-04-16 09:00",14.3481042253521,"Approved","OW470"
"2023-04-16 10:00",14.3422070422535,"Approved","OW470"
"2023-04-16 11:00",14.3399098591549,"Approved","OW470"
"2023-04-16 12:00",14.3377126760563,"Approved","OW470"
"2023-04-16 13:00",14.3352154929577,"Approved","OW470"
"2023-04-16 14:00",14.3306183098592,"Approved","OW470"
"2023-04-16 15:00",14.3345211267606,"Approved","OW470"
"2023-04-16 16:00",14.335923943662,"Approved","OW470"
"2023-04-16 17:00",14.3344267605634,"Approved","OW470"
"2023-04-16 18:00",14.3343295774648,"Approved","OW470"
"2023-04-16 19:00",14.3352323943662,"Approved","OW470"
"2023-04-16 20:00",14.3359352112676,"Approved","OW470"